Location: *
(45.9500°N, 9.0833°E)
Time: 20:54:39
(UTC+00:00)

Vanguard 2 Rocket - Pass Details

Date: 20 June 2021
Orbit: 555 x 3325 km, 32.9° (Epoch: 30 July)

Event Time Altitude Azimuth Distance (km) Brightness Sun altitude
Rises 16:32:43 0° 209° (SSW) 6,995 11.7 25.5°
Reaches altitude 10° 16:38:10 10° 200° (SSW) 6,167 11.3 24.6°
Maximum altitude 16:54:01 31° 148° (SSE) 4,659 10.3 21.9°
Drops below altitude 10° 17:08:03 10° 96° (E) 5,504 10.4 19.5°
Sets 17:12:28 0° 87° (E) 6,177 10.6 18.8°
